Meteo Giornale » Osservazioni meteo Namibia » Walvis Bay
ore: 09:00 - Osservazioni Meteo Walvis Bay
Lat. 22° 58' S Lon. 14° 39' E Alt. 46 metri s.l.m.
12 °C
Foschia
Temp. 24 Ore
11 °C
19 °C
Est/Nord-Est
13 Km/h
Dew point 12 °C
Umidità 100 %
Visibilità 4 Km
Il sole sorge alle ore 07:11
Il sole tramonta alle ore 18:51
| Data e Ora | Cielo e Fenomeni | T °C | DP °C | Um. % | Pres. hPa | Vis. km | Vento km/h | |
|---|---|---|---|---|---|---|---|---|
| Oggi h: 09:00 | Foschia | 12 | 12 | 100 | 1020 | 4 | E/NE 13 | |
| Oggi h: 08:00 | Foschia | 12 | 12 | 100 | 1020 | 4 | N/NE 9.3 | |
| Oggi h: 07:00 | Foschia | 12 | 12 | 100 | 1019 | 4 | N/NE 11.1 | |
| Oggi h: 06:00 | Sereno | 12 | 12 | 100 | 1018 | 10 | N/NE 14.8 | |
| Oggi h: 05:00 | Sereno | 12 | 12 | 100 | 1019 | 10 | N/NE 9.3 | |
| Oggi h: 04:00 | Sereno | 12 | 12 | 100 | 1018 | 10 | N 9.3 | |
| Oggi h: 03:00 | Sereno | 13 | 11 | 87 | 1019 | 10 | N 11.1 | |
| Oggi h: 02:00 | Sereno | 13 | 11 | 87 | 1019 | 10 | N 11.1 | |
| Oggi h: 01:00 | Sereno | 12 | 11 | 93 | 1019 | 0 | N 13 | |
| Oggi h: 00:00 | Sereno | 12 | 11 | 93 | 1019 | 0 | NE 13 | |
| Ieri h: 23:00 | Sereno | 11 | 10 | 93 | 1019 | 0 | N/NE 9.3 | |
| Ieri h: 22:00 | Sereno | 12 | 11 | 93 | 1019 | 0 | N 3.7 | |
| Ieri h: 21:00 | Sereno | 12 | 11 | 93 | 1019 | 0 | O 11.1 | |
| Ieri h: 20:00 | Sereno | 13 | 11 | 87 | 1017 | 0 | O/SO 18.5 | |
| Ieri h: 19:00 | Sereno | 14 | 11 | 82 | 1017 | 0 | O 16.7 | |
| Ieri h: 18:00 | Sereno | 15 | 10 | 72 | 1016 | 10 | O 18.5 | |
| Ieri h: 17:00 | Sereno | 17 | 10 | 63 | 1016 | 10 | O 20.3 | |
| Ieri h: 16:00 | Sereno | 19 | 10 | 55 | 1016 | 10 | O 14.8 | |
| Ieri h: 11:00 | Sereno | 15 | 9 | 67 | 1019 | 10 | NO 7.4 | |
| Ieri h: 10:00 | Poco Nuvoloso | 14 | 10 | 76 | 1019 | 10 | N/NO 13 | |



